Wind_Speed
32 36 28 26 31 31 32 33 30 26 24 30 14 27 27 24 21 26 26 12 3 8 2 6 9 14 20 21 20 18 19 19 17 18 19 17 15 13 9 7 6 4 5 4
39 30 23 27 30 35 36 33 30 21 27 28 32 24 26 26 26 34 17 7 2 7 6 3 7 14 17 21 19 19 20 20 20 20 19 17 14 12 10 9 7 5 3 3
36 19 32 32 32 35 37 35 29 22 23 23 14 28 29 32 29 33 24 22 9 2 3 3 5 12 16 20 19 20 21 22 22 21 19 16 14 13 12 11 8 6 4 2
35 33 37 36 34 33 35 36 30 27 30 26 31 39 34 27 31 32 21 16 3 11 4 5 7 12 16 21 21 20 21 23 23 21 19 18 17 15 12 10 9 8 5 3
38 36 37 37 31 32 30 36 36 33 36 33 31 35 31 25 35 25 20 18 12 6 2 5 9 12 16 21 21 20 21 22 21 21 21 19 16 12 11 11 10 7 6 5
44 38 39 35 33 35 27 36 39 37 42 47 42 36 34 31 29 23 23 16 12 4 6 6 10 14 15 20 20 18 19 20 21 20 20 17 14 13 12 12 9 8 7 5
53 46 44 40 40 36 33 36 39 48 51 48 44 44 40 32 32 30 23 23 13 1 7 5 9 14 18 19 19 18 15 18 19 19 19 17 14 13 12 10 8 6 6 5
55 53 51 46 46 39 33 31 39 50 48 45 44 48 38 30 22 21 22 27 15 16 9 6 10 12 18 20 19 18 17 17 18 19 19 16 12 11 10 9 7 7 7 7
59 55 45 44 44 42 40 45 37 37 44 48 45 37 34 31 29 26 21 21 23 20 16 12 12 13 16 19 19 17 17 19 19 19 18 15 13 11 10 8 7 7 8 9
60 52 48 42 42 45 44 35 38 42 44 41 36 28 16 28 35 35 30 29 30 26 22 17 14 14 17 18 20 20 18 19 21 22 19 16 14 12 11 10 12 14 14 13
61 57 54 34 46 48 47 44 40 39 39 35 26 15 11 8 6 33 32 28 25 32 20 12 13 12 14 18 20 21 20 19 18 15 16 15 14 15 12 12 14 17 17 16
59 64 57 56 48 45 43 49 42 42 37 34 23 22 14 21 20 17 23 32 32 33 29 20 16 11 13 16 20 20 20 18 19 20 19 18 15 12 11 11 9 6 6 5
63 69 60 61 54 49 41 48 46 41 37 39 33 29 15 23 18 19 19 19 41 38 41 31 20 14 12 15 17 20 19 20 20 20 19 17 14 12 13 7 7 5 5 4
76 75 71 65 61 52 47 39 47 47 44 38 38 24 15 14 17 21 17 24 31 46 45 41 29 21 17 14 19 20 21 21 21 22 20 17 15 12 14 11 8 7 8 6
74 77 76 67 63 55 45 46 39 52 46 39 38 32 23 16 18 19 20 22 30 37 32 40 32 25 22 17 23 23 22 20 20 19 17 16 15 14 14 15 10 5 7 6
74 75 80 71 61 47 40 43 39 40 49 40 34 36 26 27 28 27 26 27 28 31 40 38 33 30 28 23 27 27 23 21 21 20 17 16 13 12 11 13 13 8 5 4
71 72 78 70 61 52 47 44 40 33 40 45 38 35 25 28 33 35 33 29 31 37 43 40 43 35 28 20 26 28 28 26 25 23 19 15 15 13 9 8 10 9 9 8
76 74 78 75 62 61 46 43 48 36 28 41 40 31 29 20 25 30 33 29 32 36 40 43 39 35 29 21 19 18 28 28 26 23 21 19 16 13 12 8 5 7 11 11
70 74 72 66 65 63 48 47 41 44 36 49 43 31 25 32 32 34 38 37 35 37 36 36 34 28 26 25 25 31 28 24 25 24 22 24 22 18 14 10 10 13 15 16
66 68 69 72 66 63 53 55 49 48 48 56 50 43 44 42 40 41 41 47 42 36 36 36 31 26 23 27 27 26 30 26 21 21 22 25 24 22 17 15 16 17 17 18
66 60 65 74 56 62 62 63 58 54 53 62 57 49 48 51 50 50 47 40 41 36 31 31 32 32 31 31 31 29 28 29 24 24 25 28 26 24 24 22 21 25 24 24
46 57 63 58 69 62 62 56 65 63 63 65 64 56 61 55 57 55 49 39 39 36 33 29 28 28 29 35 33 33 31 26 23 22 19 19 24 28 30 29 26 27 31 32
27 43 68 60 52 67 63 65 73 71 73 68 67 65 69 65 64 60 54 45 34 30 39 37 34 32 31 30 31 30 25 25 32 33 30 32 32 33 35 34 32 32 32 32
29 42 57 72 58 56 50 61 70 82 74 73 70 73 80 76 73 67 59 50 41 39 37 38 38 37 35 33 29 24 24 23 26 35 38 37 36 37 37 36 34 32 32 34
32 44 58 63 66 66 58 50 60 69 76 74 76 78 77 78 75 68 62 55 45 34 39 43 41 40 39 36 33 29 27 28 28 29 32 32 33 33 33 32 29 29 30 32
45 40 48 67 59 70 68 43 47 62 61 71 74 74 75 73 68 63 58 55 45 43 45 49 48 43 40 38 37 33 32 33 32 33 33 32 32 33 34 34 34 34 33 34
Wind_Direction
234 236 236 242 240 234 232 235 234 233 202 214 218 238 249 262 280 281 262 209 142 357 37 199 186 202 203 196 186 191 183 179 178 177 180 176 169 160 157 156 154 141 113 90
232 233 233 230 226 227 228 227 228 220 195 204 225 226 245 257 275 281 288 180 113 20 13 218 193 188 190 192 192 191 186 183 184 185 183 174 169 166 170 174 163 154 147 130
240 229 233 228 228 227 223 225 224 211 190 198 229 252 246 240 255 268 274 264 254 193 76 189 217 193 202 192 195 191 192 188 188 189 182 174 176 181 186 177 168 180 186 157
232 224 228 223 226 229 228 220 218 204 176 205 214 231 249 255 252 265 284 284 324 339 151 174 182 212 204 195 195 199 198 193 193 190 185 185 191 191 185 180 185 200 184 187
229 222 225 225 222 228 229 215 214 209 185 197 211 237 244 240 244 260 269 304 351 316 188 168 187 207 209 199 198 202 205 202 197 194 195 192 193 190 191 195 201 203 194 201
224 222 222 218 217 224 221 216 209 209 192 202 197 223 243 246 253 255 263 292 325 82 166 189 204 208 205 207 204 208 206 207 202 202 204 195 191 196 205 211 210 205 201 222
222 217 215 214 214 213 213 207 207 199 206 219 198 206 215 238 253 262 261 281 308 28 94 198 218 215 202 207 210 211 211 205 206 209 207 201 198 204 210 216 224 226 219 229
221 215 215 209 213 216 219 222 220 211 219 224 212 216 222 208 201 225 260 268 278 293 270 150 216 210 209 206 209 215 213 209 204 208 214 208 203 213 215 213 209 208 238 255
217 217 217 213 212 210 208 220 216 218 219 223 224 230 232 219 199 214 210 228 252 265 265 269 194 207 212 205 206 209 215 208 199 203 209 206 211 207 208 211 219 236 244 258
211 218 210 212 213 204 211 219 211 215 219 225 230 228 236 222 216 206 202 225 230 252 258 186 181 201 208 206 209 209 211 208 201 203 204 204 202 202 211 226 237 247 247 245
206 209 199 193 209 212 206 213 210 221 215 216 213 190 155 182 191 227 224 203 217 244 249 164 173 195 211 215 213 213 213 214 211 204 203 200 197 202 217 239 250 253 257 251
201 201 198 195 198 214 213 213 210 217 217 220 210 169 188 232 211 213 218 225 220 236 246 243 172 181 229 219 220 212 213 210 202 200 197 198 206 216 223 236 255 254 243 230
196 195 194 193 190 191 218 213 218 214 217 215 194 178 217 206 226 203 221 216 215 217 233 239 221 185 216 219 220 214 209 209 205 205 201 206 216 224 218 239 264 260 228 238
195 193 194 192 197 192 201 216 211 213 212 208 196 182 205 232 223 196 237 223 206 212 229 240 229 213 202 215 215 215 211 207 210 207 206 209 216 219 221 231 242 242 241 246
196 194 197 193 188 190 198 214 220 215 213 209 193 193 190 205 227 230 233 233 223 217 220 231 231 221 221 221 211 211 214 209 210 212 205 213 224 226 225 219 224 233 247 257
196 190 193 189 185 182 193 206 222 213 217 212 188 199 205 187 203 218 225 239 248 228 216 224 232 227 228 224 215 201 204 208 206 200 196 208 219 225 234 232 220 226 247 272
198 193 190 184 176 188 187 187 209 217 216 208 189 190 207 229 229 218 238 232 226 219 219 215 223 232 232 230 215 210 200 203 203 202 203 205 216 219 213 230 232 239 259 275
200 198 190 181 186 188 179 175 193 215 214 203 179 196 219 227 238 240 228 228 221 219 213 208 217 225 232 233 216 210 216 205 205 209 208 208 212 207 218 227 262 268 272 280
197 200 190 187 189 184 173 177 181 196 196 191 188 194 223 225 222 220 218 214 218 226 228 226 228 231 233 228 199 194 205 213 213 209 203 204 206 213 215 228 247 266 274 278
192 198 192 188 187 186 187 183 174 180 196 186 191 206 207 215 218 222 217 209 206 213 221 230 234 237 236 243 242 224 207 214 221 220 215 214 213 217 226 242 258 265 275 287
190 188 195 193 189 189 190 182 177 178 181 186 195 199 204 205 215 222 224 206 207 209 216 224 229 227 224 221 229 235 228 223 226 230 230 228 229 230 235 237 248 261 270 276
175 177 193 192 197 191 193 190 187 182 179 187 195 198 208 203 211 221 221 211 202 208 214 219 223 225 225 231 236 236 240 237 228 225 230 244 244 243 239 240 244 250 264 272
193 182 185 188 183 194 195 184 191 189 183 188 194 199 205 203 210 221 226 220 205 207 213 216 217 222 225 224 228 234 230 218 216 216 224 239 243 243 243 242 238 247 252 262
208 200 192 192 195 197 187 189 191 192 191 189 192 196 200 206 209 221 230 229 225 220 217 218 219 222 228 233 236 233 236 230 208 212 215 220 227 235 241 246 248 245 246 251
215 218 211 196 205 207 200 194 201 196 197 195 196 200 205 212 217 223 231 234 234 222 217 224 225 224 225 231 234 235 235 236 233 227 223 222 228 236 241 248 252 255 255 256
228 228 225 211 213 215 215 205 203 210 200 206 209 210 214 217 221 222 225 229 231 223 221 225 228 229 231 231 235 239 240 240 238 238 239 240 241 242 242 245 250 252 256 258
Height
5826 5825 5832 5838 5841 5847 5849 5851 5857 5861 5867 5872 5877 5873 5875 5882 5883 5882 5880 5884 5885 5884 5887 5889 5892 5897 5901 5905 5909 5914 5917 5920 5924 5927 5930 5932 5935 5938 5940 5942 5944 5946 5947 5948
5814 5823 5831 5829 5831 5836 5841 5846 5851 5856 5863 5867 5869 5872 5876 5877 5881 5874 5876 5879 5883 5884 5884 5885 5890 5895 5898 5902 5908 5912 5917 5919 5923 5926 5929 5932 5936 5939 5941 5943 5945 5947 5948 5949
5811 5825 5818 5821 5824 5827 5833 5839 5847 5852 5860 5865 5870 5866 5870 5874 5869 5875 5883 5876 5882 5883 5883 5886 5889 5893 5897 5901 5907 5911 5915 5918 5922 5926 5929 5933 5936 5938 5941 5943 5946 5948 5949 5950
5802 5809 5808 5813 5817 5822 5825 5836 5842 5847 5851 5858 5865 5866 5865 5869 5870 5870 5877 5878 5880 5883 5881 5884 5887 5894 5898 5900 5904 5909 5914 5917 5921 5925 5929 5931 5934 5937 5940 5943 5945 5947 5949 5951
5793 5800 5802 5805 5816 5816 5822 5829 5835 5841 5842 5849 5854 5859 5861 5865 5866 5873 5873 5876 5876 5883 5878 5881 5886 5893 5898 5901 5904 5907 5912 5917 5921 5925 5928 5931 5934 5937 5940 5941 5944 5947 5949 5950
5780 5788 5792 5801 5807 5808 5817 5819 5826 5833 5836 5833 5843 5851 5855 5855 5861 5868 5869 5871 5875 5879 5875 5880 5887 5893 5897 5901 5904 5907 5911 5916 5921 5924 5928 5931 5934 5937 5939 5942 5944 5946 5949 5950
5765 5774 5782 5790 5796 5800 5804 5809 5816 5822 5821 5823 5837 5841 5848 5856 5856 5857 5861 5862 5865 5871 5874 5882 5887 5891 5895 5899 5903 5906 5910 5914 5918 5923 5927 5930 5934 5937 5940 5942 5944 5946 5948 5949
5754 5762 5768 5778 5783 5794 5800 5807 5808 5809 5816 5823 5832 5831 5840 5850 5857 5861 5857 5853 5860 5865 5874 5883 5886 5890 5893 5897 5901 5905 5907 5911 5916 5920 5925 5930 5933 5936 5939 5941 5943 5945 5946 5947
5739 5751 5763 5772 5778 5785 5791 5791 5805 5811 5816 5818 5826 5833 5839 5845 5847 5851 5857 5859 5859 5865 5873 5881 5883 5887 5890 5894 5899 5902 5905 5909 5913 5917 5922 5927 5931 5934 5936 5939 5941 5944 5945 5945
5725 5732 5750 5763 5771 5775 5781 5793 5798 5800 5804 5811 5820 5827 5833 5838 5844 5846 5850 5856 5860 5864 5869 5876 5880 5884 5888 5891 5896 5899 5902 5907 5910 5914 5919 5924 5928 5931 5934 5936 5938 5939 5941 5943
5702 5717 5736 5750 5757 5767 5773 5778 5789 5799 5802 5807 5814 5821 5831 5837 5842 5844 5848 5851 5857 5858 5865 5871 5878 5882 5885 5889 5893 5896 5900 5904 5909 5914 5918 5922 5925 5928 5931 5933 5934 5935 5936 5938
5683 5703 5716 5729 5746 5762 5766 5773 5783 5788 5797 5804 5812 5815 5821 5827 5833 5841 5845 5851 5852 5854 5859 5867 5875 5879 5882 5886 5891 5894 5897 5902 5906 5909 5914 5919 5922 5926 5928 5929 5931 5932 5932 5933
5671 5689 5706 5721 5731 5739 5755 5765 5776 5784 5794 5798 5807 5813 5819 5822 5828 5836 5842 5846 5851 5852 5855 5862 5869 5876 5880 5883 5887 5892 5895 5899 5903 5907 5911 5916 5920 5922 5925 5927 5929 5930 5930 5930
5652 5674 5691 5706 5724 5736 5743 5756 5768 5775 5782 5794 5802 5811 5815 5819 5824 5830 5836 5839 5845 5852 5852 5856 5863 5871 5876 5879 5883 5887 5892 5896 5900 5904 5909 5913 5916 5919 5922 5924 5926 5926 5927 5928
5647 5668 5685 5703 5714 5726 5737 5750 5760 5766 5777 5787 5801 5804 5811 5820 5822 5826 5832 5838 5840 5846 5851 5851 5856 5864 5871 5875 5878 5882 5888 5892 5897 5902 5906 5909 5912 5915 5918 5920 5923 5924 5924 5925
5640 5656 5670 5690 5709 5723 5730 5741 5754 5763 5773 5783 5795 5802 5807 5816 5819 5823 5827 5832 5836 5842 5846 5849 5852 5857 5863 5870 5874 5877 5883 5888 5893 5898 5902 5905 5910 5913 5915 5917 5919 5921 5922 5923
5636 5650 5666 5691 5704 5708 5717 5729 5748 5759 5767 5778 5787 5797 5800 5806 5813 5819 5822 5828 5830 5834 5840 5844 5847 5851 5857 5864 5870 5874 5878 5883 5889 5894 5898 5903 5906 5910 5912 5913 5917 5919 5920 5921
5632 5646 5661 5681 5689 5701 5723 5729 5739 5753 5764 5775 5784 5790 5794 5801 5806 5811 5815 5820 5823 5827 5832 5835 5840 5846 5849 5856 5864 5870 5874 5879 5885 5890 5895 5899 5903 5907 5909 5911 5913 5915 5917 5918
5627 5643 5660 5669 5680 5701 5716 5720 5730 5744 5757 5762 5772 5782 5789 5789 5791 5797 5803 5810 5815 5820 5825 5830 5835 5842 5846 5851 5857 5861 5868 5874 5880 5885 5891 5895 5899 5902 5904 5907 5909 5911 5912 5914
5624 5637 5652 5662 5677 5692 5697 5705 5716 5729 5742 5753 5761 5767 5771 5777 5782 5786 5793 5801 5808 5814 5819 5826 5832 5838 5844 5848 5852 5860 5866 5870 5876 5881 5885 5889 5893 5897 5900 5902 5904 5905 5907 5908
5621 5630 5645 5657 5665 5670 5674 5695 5708 5714 5727 5738 5746 5750 5749 5765 5767 5773 5782 5795 5804 5810 5816 5822 5828 5834 5838 5841 5846 5852 5858 5865 5870 5872 5875 5880 5885 5890 5893 5895 5897 5899 5900 5901
5614 5628 5644 5654 5661 5666 5681 5687 5695 5703 5712 5724 5731 5738 5746 5755 5758 5765 5774 5786 5797 5805 5812 5817 5823 5828 5833 5839 5843 5845 5850 5855 5860 5865 5869 5873 5877 5880 5883 5886 5889 5892 5893 5894
5609 5609 5624 5631 5640 5654 5664 5668 5674 5684 5693 5707 5719 5731 5740 5749 5754 5760 5769 5781 5793 5800 5806 5812 5817 5821 5825 5829 5832 5837 5843 5847 5851 5854 5860 5864 5867 5870 5872 5875 5878 5881 5884 5886
5609 5616 5615 5624 5630 5635 5641 5644 5656 5668 5686 5698 5710 5725 5735 5740 5748 5756 5764 5775 5786 5795 5800 5804 5810 5815 5818 5821 5826 5832 5835 5839 5844 5848 5851 5855 5858 5861 5863 5864 5867 5871 5874 5876
5605 5604 5612 5627 5626 5629 5644 5652 5661 5674 5685 5696 5706 5717 5725 5733 5741 5750 5758 5767 5778 5787 5792 5796 5801 5806 5811 5815 5820 5825 5829 5832 5835 5839 5843 5847 5850 5853 5855 5856 5860 5863 5865 5867
5600 5605 5616 5631 5637 5645 5656 5663 5670 5680 5684 5692 5700 5706 5712 5721 5730 5741 5749 5757 5768 5776 5781 5784 5790 5796 5801 5807 5811 5816 5820 5824 5828 5831 5834 5837 5841 5843 5846 5848 5851 5853 5856 5857